Fullerton, CA

10:43 AM PDT on April 25, 2017 (GMT -0700)
Fullerton Municipal

Weather History for KFUL - November, 2012

Change the Weather History Date:

Saturday, November 17, 2012

  Actual Average Record
Temperature  
Mean Temperature 67 °F 60 °F  
Max Temperature 73 °F 72 °F 90 °F (1956)
Min Temperature 60 °F 49 °F 41 °F (2015)
Degree Days  
Heating Degree Days 0 5  
Month to date heating degree days 26 57  
Since 1 July heating degree days 42 81  
Cooling Degree Days 2 1  
Month to date cooling degree days 41 19  
Year to date cooling degree days 2030 1250  
Growing Degree Days 16 (Base 50)    
Moisture  
Dew Point 58 °F    
Average Humidity 74    
Maximum Humidity 90    
Minimum Humidity 57    
Precipitation  
Precipitation 0.06 in 0.03 in 0.12 in (2012)
Month to date precipitation 0.24 0.66  
Year to date precipitation 3.93 11.39  
Since 1 July precipitation 0.40  
Snow  
Snow 0.00 in - - ()
Month to date snowfall 0.0  
Year to date snowfall 0.0  
Snow Depth 0.00 in    
Sea Level Pressure  
Sea Level Pressure 30.06 in    
Wind  
Wind Speed 4 mph (SSE)    
Max Wind Speed 10 mph    
Max Gust Speed 14 mph    
Visibility 8 miles    
Events Rain    
T = Trace of Precipitation, MM = Missing Value Source: NWS Daily Summary

Daily Weather History Graph

Daily Weather History Graph

Search for Another Location

Airport or City:

Trip Planner

Search our weather history database for the weather conditions in past years. The results will help you decide how hot, cold, wet, or windy it might be!

Date:

Astronomy

Nov. 17, 2012 Rise Set
Actual Time 6:26 AM PST 4:47 PM PST
Civil Twilight 5:59 AM PST 5:13 PM PST
Nautical Twilight 5:29 AM PST 5:44 PM PST
Astronomical Twilight 4:59 AM PST 6:13 PM PST
Moon 10:14 AM PST (11/17) 9:01 PM PST (11/17)
Length of Visible Light 11h 13m
Length of Day
10h 20m
Waxing Crescent, 21% of the Moon is Illuminated
Nov 17
Waxing Crescent
Nov 20
First Quarter
Nov 28
Full
Dec 6
Last Quarter
Dec 13
New

Hourly Weather History & Observations

Time (PST) Temp. Dew Point Humidity Pressure Visibility Wind Dir Wind Speed Gust Speed Precip Events Conditions
12:19 AM 64.4 °F 57.2 °F 77% 30.07 in 5.0 mi Calm Calm - 0.00 in Rain Light Rain
12:51 AM 64.4 °F 59.0 °F 83% 30.07 in 2.5 mi Calm Calm - 0.02 in Rain Light Rain
12:53 AM 64.0 °F 59.0 °F 84% 30.06 in 2.5 mi Calm Calm - 0.02 in Rain Light Rain
1:08 AM 62.6 °F 59.0 °F 88% 30.06 in 2.0 mi SE 4.6 mph - 0.02 in Rain Light Rain
1:25 AM 62.6 °F 59.0 °F 88% 30.06 in 2.0 mi South 4.6 mph - 0.03 in Rain Light Rain
1:53 AM 63.0 °F 59.0 °F 87% 30.05 in 2.5 mi East 4.6 mph - 0.04 in Rain Light Rain
2:01 AM 62.6 °F 59.0 °F 88% 30.05 in 3.0 mi East 8.1 mph - 0.00 in   Overcast
2:53 AM 63.0 °F 59.0 °F 87% 30.04 in 8.0 mi East 4.6 mph - 0.00 in   Overcast
3:53 AM 62.1 °F 57.9 °F 86% 30.04 in 10.0 mi Calm Calm - 0.00 in   Overcast
4:53 AM 63.0 °F 57.0 °F 81% 30.04 in 10.0 mi Calm Calm - 0.00 in   Overcast
5:10 AM 62.6 °F 57.2 °F 82% 30.05 in 10.0 mi Calm Calm - N/A   Mostly Cloudy
5:53 AM 61.0 °F 57.0 °F 87% 30.06 in 9.0 mi East 3.5 mph - N/A   Clear
6:53 AM 60.1 °F 55.9 °F 86% 30.07 in 5.0 mi East 3.5 mph - N/A   Partly Cloudy
7:53 AM 62.1 °F 57.0 °F 84% 30.09 in 6.0 mi East 3.5 mph - 0.00 in   Haze
8:53 AM 64.9 °F 57.0 °F 75% 30.10 in 8.0 mi East 5.8 mph - N/A   Overcast
9:53 AM 68.0 °F 57.0 °F 68% 30.10 in 10.0 mi Calm Calm - N/A   Overcast
10:05 AM 68.0 °F 57.2 °F 68% 30.10 in 10.0 mi Variable 3.5 mph - 0.00 in Rain Light Rain
10:53 AM 70.0 °F 57.0 °F 63% 30.09 in 10.0 mi Calm Calm - 0.00 in   Overcast
11:44 AM 69.8 °F 57.2 °F 64% 30.07 in 10.0 mi South 4.6 mph - N/A   Overcast
11:53 AM 71.1 °F 57.0 °F 61% 30.06 in 10.0 mi SSW 5.8 mph - N/A   Overcast
12:26 PM 71.6 °F 55.4 °F 57% 30.05 in 10.0 mi SSW 6.9 mph - N/A   Overcast
12:53 PM 71.1 °F 55.9 °F 59% 30.04 in 10.0 mi South 8.1 mph - N/A   Mostly Cloudy
1:53 PM 71.1 °F 57.0 °F 61% 30.03 in 10.0 mi SSW 8.1 mph - N/A   Overcast
2:53 PM 70.0 °F 57.0 °F 63% 30.03 in 10.0 mi SSW 9.2 mph - N/A   Overcast
3:37 PM 69.8 °F 57.2 °F 64% 30.04 in 10.0 mi South 6.9 mph - 0.00 in   Overcast
4:53 PM 66.9 °F 57.0 °F 70% 30.04 in 10.0 mi South 9.2 mph - 0.00 in   Overcast
5:46 PM 64.4 °F 59.0 °F 83% 30.05 in 3.0 mi Calm Calm - 0.05 in Rain Heavy Rain
5:53 PM 64.9 °F 59.0 °F 81% 30.05 in 7.0 mi Calm Calm - 0.05 in Rain Light Rain
6:35 PM 64.4 °F 60.8 °F 88% 30.06 in 10.0 mi SSW 4.6 mph - 0.01 in Rain Light Rain
6:53 PM 64.9 °F 60.1 °F 84% 30.06 in 10.0 mi Calm Calm - 0.01 in   Overcast
7:53 PM 64.9 °F 59.0 °F 81% 30.06 in 10.0 mi South 4.6 mph - N/A   Overcast
8:53 PM 64.0 °F 59.0 °F 84% 30.07 in 10.0 mi Variable 3.5 mph - N/A   Overcast
9:20 PM 64.4 °F 57.2 °F 77% 30.08 in 8.0 mi ESE 3.5 mph - 0.00 in Rain Light Rain
9:53 PM 64.0 °F 57.9 °F 80% 30.09 in 10.0 mi Calm Calm - 0.00 in   Overcast
11:08 PM 64.4 °F 59.0 °F 83% 30.10 in 10.0 mi Calm Calm - N/A   Overcast
11:46 PM 64.4 °F 59.0 °F 83% 30.10 in 10.0 mi Calm Calm - N/A   Overcast
11:53 PM 64.0 °F 59.0 °F 84% 30.10 in 10.0 mi Calm Calm - N/A   Overcast